Location: Ostrava
(49.8330°N, 18.2830°E)
Time: 02:20:10
(UTC+02:00)

Envisat - Pass Details

Date: 23 January 2022
Orbit: 764 x 765 km, 98.2° (Epoch: 22 May)

Event Time Altitude Azimuth Distance (km) Brightness Sun altitude
Rises 05:26:58 0° 10° (N) 3,243 6.3 -19.8°
Reaches altitude 10° 05:29:20 10° 5° (N) 2,312 5.5 -19.4°
Maximum altitude 05:34:13 49° 292° (WNW) 987 3.1 -18.6°
Drops below altitude 10° 05:39:05 10° 218° (SW) 2,298 5.2 -17.8°
Sets 05:41:26 0° 213° (SSW) 3,220 6.0 -17.5°
